TimeMST,TemperatureF,Dew PointF,Humidity,Sea Level PressureIn,VisibilityMPH,Wind Direction,Wind SpeedMPH,Gust SpeedMPH,PrecipitationIn,Events,Conditions,WindDirDegrees,DateUTC
12:53 AM,6.1,1.9,83,29.99,10.0,WNW,3.5,-,N/A,,Mostly Cloudy,290,2012-12-27 07:53:00
1:53 AM,10.0,6.1,84,29.99,10.0,Calm,Calm,-,N/A,,Overcast,0,2012-12-27 08:53:00
2:53 AM,9.0,6.1,88,30.01,9.0,Calm,Calm,-,N/A,,Overcast,0,2012-12-27 09:53:00
3:53 AM,9.0,6.1,88,30.01,9.0,Calm,Calm,-,N/A,,Overcast,0,2012-12-27 10:53:00
4:53 AM,8.1,5.0,87,30.02,9.0,Calm,Calm,-,N/A,,Mostly Cloudy,0,2012-12-27 11:53:00
5:53 AM,7.0,3.9,87,30.03,10.0,NNE,3.5,-,N/A,,Overcast,30,2012-12-27 12:53:00
6:53 AM,7.0,3.9,87,30.04,10.0,North,3.5,-,N/A,,Overcast,10,2012-12-27 13:53:00
7:53 AM,8.1,3.9,83,30.05,10.0,Calm,Calm,-,N/A,,Overcast,0,2012-12-27 14:53:00
8:53 AM,8.1,5.0,87,30.07,10.0,Calm,Calm,-,N/A,,Overcast,0,2012-12-27 15:53:00
9:53 AM,10.9,6.1,81,30.08,10.0,Calm,Calm,-,N/A,,Overcast,0,2012-12-27 16:53:00
10:53 AM,12.2,8.6,85,29.88,10.0,Calm,Calm,-,N/A,,Mostly Cloudy,0,2012-12-27 17:53:00
11:53 AM,15.1,10.0,80,30.06,10.0,SSW,3.5,-,N/A,,Scattered Clouds,200,2012-12-27 18:53:00
12:53 PM,17.1,10.9,77,30.03,10.0,South,3.5,-,N/A,,Scattered Clouds,170,2012-12-27 19:53:00
1:53 PM,21.2,12.2,68,29.85,10.0,Calm,Calm,-,N/A,,Partly Cloudy,0,2012-12-27 20:53:00
2:53 PM,19.0,12.0,74,30.03,10.0,SSW,4.6,-,N/A,,Clear,210,2012-12-27 21:53:00
3:53 PM,19.0,12.0,74,30.03,10.0,SSW,9.2,-,N/A,,Clear,210,2012-12-27 22:53:00
4:53 PM,17.6,10.4,73,29.88,10.0,SW,6.9,-,N/A,,Partly Cloudy,220,2012-12-27 23:53:00
5:53 PM,17.1,10.9,77,30.06,10.0,SSW,9.2,-,N/A,,Clear,210,2012-12-28 00:53:00
6:53 PM,17.1,12.0,81,30.07,9.0,SW,11.5,-,N/A,,Clear,220,2012-12-28 01:53:00
7:53 PM,18.0,12.9,81,30.06,9.0,SW,12.7,-,N/A,,Mostly Cloudy,230,2012-12-28 02:53:00
8:53 PM,19.0,14.0,81,30.06,10.0,SW,15.0,-,N/A,,Mostly Cloudy,230,2012-12-28 03:53:00
9:53 PM,19.9,12.9,74,30.06,10.0,WSW,18.4,-,N/A,,Scattered Clouds,240,2012-12-28 04:53:00
10:53 PM,19.9,14.0,78,30.06,10.0,WSW,18.4,-,N/A,,Scattered Clouds,240,2012-12-28 05:53:00
11:53 PM,19.9,14.0,78,30.05,10.0,WSW,19.6,-,N/A,,Overcast,240,2012-12-28 06:53:00